Date,TemperatureHighF,TemperatureAvgF,TemperatureLowF,DewpointHighF,DewpointAvgF,DewpointLowF,HumidityHigh,HumidityAvg,HumidityLow,PressureMaxIn,PressureMinIn,WindSpeedMaxMPH,WindSpeedAvgMPH,GustSpeedMaxMPH,PrecipitationSumIn
2013-2-1,35.6,31.0,26.8,23.9,17.4,12.5,79,58,42,29.98,29.91,7,2,11,0.00
2013-2-2,53.2,46.8,28.0,35.9,32.5,23.0,85,59,48,30.08,29.99,4,3,10,0.00
2013-2-3,56.3,44.6,25.5,30.6,24.7,17.1,77,50,27,30.10,29.59,8,3,16,0.00
2013-2-4,45.9,37.9,26.6,32.9,28.2,19.9,79,69,58,29.84,29.60,6,2,11,0.00
2013-2-5,61.2,48.6,25.2,34.1,29.3,20.8,88,52,27,29.90,29.72,5,2,9,0.00
2013-2-6,62.1,49.8,27.9,51.9,41.2,22.3,98,74,47,29.85,29.65,10,4,24,0.06
2013-2-7,54.3,46.6,26.6,50.3,38.5,21.8,99,76,43,30.05,29.65,10,7,19,0.92
2013-2-8,41.0,32.9,27.1,34.3,28.8,23.5,94,85,76,30.17,29.87,4,2,11,0.00
2013-2-9,53.1,42.9,32.2,43.0,36.6,28.5,94,79,66,29.85,28.92,9,4,24,0.07
2013-2-10,46.2,40.5,32.4,44.0,27.5,21.2,92,61,54,29.83,28.85,11,7,27,0.01
2013-2-11,44.6,35.4,24.4,21.0,18.0,13.7,76,52,31,30.08,29.85,7,2,12,0.00
2013-2-12,43.7,35.3,23.9,26.2,22.8,17.8,82,62,45,29.97,29.76,4,2,8,0.00
2013-2-13,57.4,43.2,24.8,25.6,19.1,12.9,70,44,22,29.80,29.68,5,2,13,0.00
2013-2-14,47.7,41.1,24.3,33.8,27.3,16.8,82,60,39,30.14,29.81,12,4,19,0.00
2013-2-15,40.5,31.5,17.8,19.5,15.0,9.9,79,53,36,30.27,30.11,12,3,19,0.00
2013-2-16,53.8,34.3,15.1,26.9,16.6,6.8,77,53,26,30.16,29.77,9,3,18,0.00
2013-2-17,70.7,50.3,20.8,35.8,25.7,15.9,85,48,16,29.76,29.31,10,3,17,0.00
2013-2-18,52.3,41.4,23.4,34.3,25.8,14.0,78,56,37,29.94,29.26,17,9,26,0.00
2013-2-19,39.6,30.3,20.7,15.8,9.0,-2.9,72,45,21,30.19,29.96,7,3,13,0.00
2013-2-20,29.3,23.9,20.5,22.8,13.1,-24.8,84,65,38,30.12,29.85,6,4,13,0.00
2013-2-21,22.8,20.9,15.3,18.7,17.5,10.8,89,86,74,29.82,29.59,6,3,13,0.00
2013-2-22,26.6,18.2,9.3,13.4,8.6,0.4,80,66,56,29.92,29.72,5,2,9,0.08
2013-2-23,37.4,21.4,-2.4,26.6,12.0,-10.8,76,67,60,29.83,29.70,5,2,10,0.05
2013-2-24,42.8,31.0,10.6,30.5,22.1,5.2,88,70,59,29.78,29.68,7,2,11,0.00
2013-2-25,35.4,33.5,31.3,30.0,28.8,26.8,93,83,76,29.83,29.62,13,7,21,0.08
2013-2-26,36.0,31.6,26.6,26.6,24.6,21.3,91,75,65,29.74,29.59,9,7,14,0.00
2013-2-27,39.2,33.3,27.1,26.9,24.4,20.8,90,71,56,30.00,29.75,12,6,20,0.00
2013-2-28,36.0,33.0,28.8,25.7,24.8,22.8,78,72,63,30.11,29.96,8,4,14,0.00